ATLAS 5 CENTAUR R/B, 49819

Orbit data source: Space-Track

ATLAS 5 CENTAUR R/B, 49819 is space debris in GEO originally from a launch on Tue, 07 Dec 2021 UTC launched from the Air Force Eastern Test Range (AFETR). Debris objects in space refer to the collection of defunct objects orbiting the Earth. Examples of debris include non-operational satellites, rocket bodies, and fragments generated from explosions, collisions, or faulty payload assembly.

Not visible in the next 10 days
ATLAS 5 CENTAUR R/B details
Identifier
49819, 2021-118C
Orbit
GEO
Last TLE update14 hours ago
Origin
Flag of USULA (US)
ManufacturerULA Decatur
MissionSpacecraft
Bus & MotorCENTAUR SEC, RL10C-1
Mass~2,020 kg wet, 2,020 kg dry
Launch date (UTC)
2021-12-07 (3 years ago)
Launch vehicleUnknown
Launch site
Air Force Eastern Test Range (AFETR)
Object type
Payload
Rocket body
Debris
Shape & HBRCyl + 1 Nozzle, 11.7 m
Radar Cross Section32.260 m², Large (>1 m²)

Expand to show TLE details & history

TLE from 14 hours ago
0 ATLAS 5 CENTAUR R/B
1 49819U 21118C   24360.92701316 -.00000125  00000-0  00000-0 0  9997
2 49819   3.0410  85.2487 0292602 192.3315 166.4857  0.94820651 10586
Epoch: 2024-12-25T22:14Z
Definitive object data (Epoch: 2024-12-25T22:14:53.937Z)
Latitude-0°
Longitude16.17855°
Altitude38,640.118 km
Speed2.933 km/s
True Right ascension05h 39m 16s
True Declination0° 00' 00"
Sunlit
Object was in daylight at TLE epoch
Visualization TLE readout
Latitude-0.89707°
Longitude-146.74981°
Altitude36,104.085 km
Speed3.108 km/s
Apparent Right ascension19h 11m 28s
Apparent Declination-6° 05' 42"
Sunlit
Object is in daylight
Visualization observer readout
Local Sidereal Time11:29:54
Azimuth77.925° E
Elevation-23.277°
Doppler factor1
Orbital elements
Apogee altitude38,669.148 km
Perigee altitude36,107.905 km
Semi-major axis43,766.664 km
Eccentricity0.0292602
Inclination3.041°
RAAN85.2487°
Arg. of periapsis192.3315°
True anomaly167.24228°
Mean anomaly166.4857°
Eccentric anomaly166.86663°
Mean motion0.23704 °/min
BSTARUnknown
Orbital period1518.71 mins
Loading historical data...
49819 neighbors
Authenticating...
Loading maneuver chart data...
Loading historical data...
Loading historical data...
Loading historical data...
Loading historical data...
Loading historical data...
Loading historical data...
Loading historical data...
Other satellites on launch #118 in the year 2021 (2021-12-07 UTC)

ATLAS 5 CENTAUR R/B Visibility forecast

Observer location: undefined°, undefined

ATLAS 5 CENTAUR R/B is not visible in the next 10 days
Span
Click to sort rows by Start time (UTC) header in descending order
Start Az.
Max El. time (UTC)
Max El. Az.
Max El.
End time (UTC)
End Az.
|